{"data":{"norad_id":62956,"epoch":"2026-05-25T00:00:02.000160Z","epoch_age_seconds":75827,"freshness":"FRESH","line1":"1 62956U 25029J   26145.00002315  .00006783  00000+0  21743-3 0  9998","line2":"2 62956  53.1598 235.6196 0001178  92.2510 303.9494 15.33543394  5826","mean_motion":15.33543394,"eccentricity":0.0001178,"inclination_deg":53.1598,"raan_deg":235.6196,"arg_perigee_deg":92.251,"mean_anomaly_deg":303.9494,"bstar":0.00021743,"rev_number":582,"period_min":93.900179521102,"perigee_km":464.44428777275,"apogee_km":466.05658985334,"semimajor_km":6843.387438813,"source":"CELESTRAK","updated_at":"2026-05-25T13:38:19.825731Z"}}